User: anonymous   Login
Location: Unspecified
(0.0000°N, 0.0000°E)
Time: 20:17:59
(UTC+00:00)
Language:

Mayak - Orbit

View from above orbital plane
View from above orbital plane
View from above satellite
View from above satellite

Ground track
Ground track

The orbit data is extracted from the following two-line orbital elements,

1 42830U 17042F   17352.52668269  .00001045  00000-0  11086-3 0  9992
2 42830  97.6089 256.5828 0015962  78.2314 282.0694 14.91020346 23413
Epoch (UTC): 18 December 2017 12:38:25
Eccentricity: 0.0015962
inclination: 97.6089°
perigee height: 583 km
apogee height: 606 km
right ascension of ascending node: 256.5828°
argument of perigee: 78.2314°
revolutions per day: 14.91020346
mean anomaly at epoch: 282.0694°
orbit number at epoch: 2341

The dashed part of the orbit path shows where the satellite is in the earth's shadow,  

DLR